User: anonymous
Location: Deer Path Park
(40.5570°N, 74.8450°W)
Time: 03:05:21
(UTC-04:00)
Language:

Iridium 49 - Orbit

View from above orbital plane
View from above orbital plane
View from above satellite
View from above satellite

Ground track
Ground track

The orbit data is extracted from the following two-line orbital elements,

1 25108U 97082E   14238.88094957  .00000316  00000-0  10568-3 0  8857
2 25108 086.3990 324.0085 0002423 110.6234 025.5249 14.34219298873416
Epoch (UTC): 26 August 2014 21:08:34
Eccentricity: 0.0002423
inclination: 86.3990°
perigee height: 776 km
apogee height: 779 km
right ascension of ascending node: 324.0085°
argument of perigee: 110.6234°
revolutions per day: 14.34219298
mean anomaly at epoch: 25.5249°
orbit number at epoch: 87341

The dashed part of the orbit path shows where the satellite is in the earth's shadow,  

DLR